This is the latest recevied weather packets stored in our database for station/object W1SCW. If no packets are shown the sender has not sent any weather packets the latest 10 day(s).
| Time | Temp. | Humidity | Pressure | Rain* | Wind** | Luminosity | Snow |
|---|---|---|---|---|---|---|---|
| 1777759347 | 25.56° C | 45% | 1016.9 hPa | 0 mm | - | 453 W/m² | - |
| 1777759044 | 25° C | 45% | 1017 hPa | 0 mm | - | 469 W/m² | - |
| 1777758741 | 25° C | 44% | 1016.9 hPa | 0 mm | - | 487 W/m² | - |
| 1777758438 | 25° C | 45% | 1016.8 hPa | 0 mm | - | 506 W/m² | - |
| 1777758135 | 24.44° C | 45% | 1016.9 hPa | 0 mm | - | 525 W/m² | - |
| 1777757832 | 25° C | 45% | 1016.9 hPa | 0 mm | - | 539 W/m² | - |
| 1777757530 | 25° C | 46% | 1016.9 hPa | 0 mm | - | 556 W/m² | - |
| 1777757228 | 25° C | 46% | 1017.1 hPa | 0 mm | - | 574 W/m² | - |
| 1777756926 | 25° C | 46% | 1016.9 hPa | 0 mm | - | 594 W/m² | - |
| 1777756622 | 25° C | 46% | 1017.2 hPa | 0 mm | - | 608 W/m² | - |
| 1777756319 | 24.44° C | 47% | 1017.1 hPa | 0 mm | - | 644 W/m² | - |
| 1777756011 | 25° C | 47% | 1017.3 hPa | 0 mm | - | 636 W/m² | - |
| 1777755708 | 25° C | 46% | 1017.3 hPa | 0 mm | - | 661 W/m² | - |
| 1777755404 | 25° C | 48% | 1017.2 hPa | 0 mm | - | 684 W/m² | - |
| 1777755101 | 24.44° C | 47% | 1017.2 hPa | 0 mm | - | 683 W/m² | - |
| 1777754798 | 25° C | 46% | 1017.3 hPa | 0 mm | - | 696 W/m² | - |
| 1777754495 | 25° C | 50% | 1017.4 hPa | 0 mm | - | 702 W/m² | - |
| 1777754192 | 24.44° C | 47% | 1017.5 hPa | 0 mm | - | 719 W/m² | - |
| 1777753891 | 25° C | 49% | 1017.4 hPa | 0 mm | - | 729 W/m² | - |
| 1777753585 | 24.44° C | 45% | 1017.6 hPa | 0 mm | - | 729 W/m² | - |
| 1777753283 | 24.44° C | 46% | 1017.7 hPa | 0 mm | - | 748 W/m² | - |
| 1777752979 | 24.44° C | 47% | 1017.6 hPa | 0 mm | - | 754 W/m² | - |
| 1777752671 | 23.89° C | 47% | 1017.7 hPa | 0 mm | - | 766 W/m² | - |
| 1777752366 | 23.89° C | 49% | 1017.7 hPa | 0 mm | - | 780 W/m² | - |
| 1777752064 | 23.89° C | 48% | 1017.7 hPa | 0 mm | - | 625 W/m² | - |
* Rain latest hour (hover to see other rain measurements)
** Current wind speed in m/s (hover to see current wind gust speed)